Youngstown, OH

10:54 PM EST on December 11, 2019 (GMT -0500)
Youngstown-Warren Regional

Weather History for KYNG - September, 2019

Change the Weather History Date:

Sunday, September 22, 2019

  Actual Average Record
Temperature  
Mean Temperature 76 °F 60 °F  
Max Temperature 86 °F 70 °F 92 °F (1931)
Min Temperature 66 °F 49 °F 32 °F (1999)
Degree Days  
Heating Degree Days 0 7  
Month to date heating degree days 13 82  
Since 1 July heating degree days 19 120  
Cooling Degree Days 11 1  
Month to date cooling degree days 83 44  
Year to date cooling degree days 747 530  
Growing Degree Days 26 (Base 50)    
Moisture  
Dew Point 62 °F    
Average Humidity 64    
Maximum Humidity 87    
Minimum Humidity 41    
Precipitation  
Precipitation 0.00 in 0.13 in 1.19 in (1986)
Month to date precipitation 4.30 2.80  
Year to date precipitation 38.82 29.02  
Snow  
Snow 0.00 in 0.00 in - ()
Month to date snowfall 0.0 0.0  
Since 1 July snowfall 0.0 0.0  
Since 1 September snowfall 0.0 0.0  
Snow Depth 0.00 in    
Sea Level Pressure  
Sea Level Pressure 30.06 in    
Wind  
Wind Speed 7 mph ()    
Max Wind Speed 21 mph    
Max Gust Speed 25 mph    
Visibility 9.8 miles    
Events      
T = Trace of Precipitation, MM = Missing Value Source: Averaged Metar Reports

Daily Weather History Graph

Daily Weather History Graph

Search for Another Location

Airport or City:

Astronomy

Sep. 22, 2019 Rise Set
Actual Time 7:09 AM EDT 7:20 PM EDT
Civil Twilight 6:42 AM EDT 7:47 PM EDT
Nautical Twilight 6:10 AM EDT 8:20 PM EDT
Astronomical Twilight 5:37 AM EDT 8:52 PM EDT
Moon No Moon Rise 3:18 PM EDT (9/22)
Length of Visible Light 13h 05m
Length of Day
12h 10m
Last Quarter, 44% of the Moon is Illuminated
Sep 22
Last Quarter
Sep 28
New
Oct 5
First Quarter
Oct 13
Full
Oct 21
Last Quarter

Hourly Weather History & Observations

Time (EDT) Temp. Heat Index Dew Point Humidity Pressure Visibility Wind Dir Wind Speed Gust Speed Precip Events Conditions
12:51 AM 70.0 °F - 64.9 °F 84% 30.15 in 10.0 mi South 5.8 mph - N/A   Scattered Clouds
1:51 AM 70.0 °F - 64.9 °F 84% 30.14 in 10.0 mi South 4.6 mph - N/A   Scattered Clouds
2:51 AM 69.1 °F - 64.9 °F 87% 30.13 in 10.0 mi South 5.8 mph - N/A   Mostly Cloudy
3:51 AM 69.1 °F - 64.9 °F 87% 30.13 in 10.0 mi South 5.8 mph - N/A   Mostly Cloudy
4:51 AM 69.1 °F - 64.9 °F 87% 30.12 in 10.0 mi South 8.1 mph - N/A   Overcast
5:51 AM 68.0 °F - 64.0 °F 87% 30.14 in 10.0 mi South 3.5 mph - N/A   Scattered Clouds
6:51 AM 69.1 °F - 64.0 °F 84% 30.13 in 10.0 mi South 6.9 mph - N/A   Mostly Cloudy
7:51 AM 68.0 °F - 64.0 °F 87% 30.14 in 9.0 mi South 5.8 mph - N/A   Mostly Cloudy
8:51 AM 71.1 °F - 64.9 °F 81% 30.14 in 9.0 mi South 8.1 mph - N/A   Mostly Cloudy
9:51 AM 75.0 °F - 64.9 °F 71% 30.13 in 9.0 mi SSW 5.8 mph - N/A   Mostly Cloudy
10:51 AM 79.0 °F - 64.9 °F 62% 30.12 in 9.0 mi SW 12.7 mph - N/A   Mostly Cloudy
11:51 AM 82.0 °F 83.1 °F 63.0 °F 52% 30.10 in 9.0 mi SW 13.8 mph - N/A   Scattered Clouds
12:51 PM 84.0 °F 84.5 °F 62.1 °F 47% 30.07 in 10.0 mi SSW 9.2 mph - N/A   Partly Cloudy
1:51 PM 84.9 °F 84.8 °F 60.1 °F 43% 30.04 in 10.0 mi SW 15.0 mph - N/A   Partly Cloudy
2:51 PM 84.9 °F 84.8 °F 60.1 °F 43% 30.02 in 10.0 mi SW 16.1 mph 23.0 mph N/A   Partly Cloudy
3:51 PM 86.0 °F 85.7 °F 60.1 °F 41% 29.99 in 10.0 mi WSW 13.8 mph - N/A   Partly Cloudy
4:51 PM 84.9 °F 84.8 °F 60.1 °F 43% 29.98 in 10.0 mi SW 11.5 mph - N/A   Mostly Cloudy
5:51 PM 84.0 °F 84.4 °F 61.0 °F 46% 29.98 in 10.0 mi SW 9.2 mph - N/A   Scattered Clouds
6:51 PM 80.1 °F 80.9 °F 60.1 °F 50% 29.96 in 10.0 mi SSW 6.9 mph - N/A   Scattered Clouds
7:51 PM 77.0 °F - 57.9 °F 52% 29.96 in 10.0 mi South 4.6 mph - N/A   Scattered Clouds
8:51 PM 75.0 °F - 57.0 °F 53% 29.97 in 10.0 mi SSW 6.9 mph - N/A   Mostly Cloudy
9:51 PM 75.0 °F - 57.0 °F 53% 29.96 in 10.0 mi SSW 6.9 mph - N/A   Mostly Cloudy
10:51 PM 73.0 °F - 55.9 °F 55% 29.95 in 10.0 mi SSW 5.8 mph - N/A   Mostly Cloudy
11:51 PM 72.0 °F - 57.0 °F 59% 29.93 in 10.0 mi South 5.8 mph - N/A   Scattered Clouds